Regional Weather Roundup
Issued by NWS Northern Indiana

Home | Current Version | Previous Version | Text Only | Print | Product List | Glossary Off
Versions: 1 2 3 4 5 6 7 8 9 10 11 12 13 14 15 16 17 18 19 20 21 22 23 24 25 26 27 28 29 30 31 32 33 34 35 36 37 38 39 40 41 42 43 44 45 46 47 48 49 50

000
ASUS43 KIWX 222000
RWRIWX

KIWX WEATHER ROUNDUP
NATIONAL WEATHER SERVICE NORTHERN INDIANA
400 PM EDT MON SEP 22 2014

NOTE: "FAIR" INDICATES FEW OR NO CLOUDS BELOW 12,000 FEET WITH NO
SIGNIFICANT WEATHER AND/OR OBSTRUCTIONS TO VISIBILITY.

* THESE STATIONS ARE NOT UNDER NWS QUALITY CONTROL. THEY ALSO MAY NOT
  REPORT WEATHER SUCH AS PRECIPITATION OR FOG.

INZ001>027-222100-
NORTHERN INDIANA

CITY           SKY/WX    TMP DP  RH WIND       PRES   REMARKS
GARY*          SUNNY     63  45  51 NE7       30.27F
VALPARAISO     SUNNY     63  44  50 VRB6      30.27F
SOUTH BEND     SUNNY     64  43  46 NW8       30.25F
ELKHART*       SUNNY     63  41  45 NW9       30.24F
GOSHEN         SUNNY    N/A N/A N/A N8        30.23F
WARSAW*        SUNNY     63  43  48 NW8       30.24S
ANGOLA*        SUNNY     63  54  72 N6        30.22S
FORT WAYNE     MOSUNNY   63  43  48 W7        30.23F
PERU/GRISSOM   SUNNY     64  47  53 N6        30.24S

$$
INZ028>050-222100-
CENTRAL INDIANA

CITY           SKY/WX    TMP DP  RH WIND       PRES   REMARKS
LAFAYETTE      SUNNY     65  44  46 VRB3      30.24F
KOKOMO*        SUNNY     66  43  42 NW7       30.24F
MUNCIE*        SUNNY     63  40  42 NW6       30.23F
INDIANAPOLIS   MOSUNNY   65  40  39 NW8       30.24F

$$
MIZ043>046-050>051-056>058-064>065-071>073-077>080-222100-
SOUTHWEST LOWER MICHIGAN

CITY           SKY/WX    TMP DP  RH WIND       PRES   REMARKS
BATTLE CREEK   SUNNY     63  43  48 NW13      30.23F
BENTON HARBOR  MOSUNNY   57  47  69 W7        30.26F
COLDWATER*     SUNNY     63  43  47 NW9       30.21F
HILLSDALE*     SUNNY     62  39  42 NW9       30.21S
HOLLAND        SUNNY     61  47  59 W9        30.25F
GRAND RAPIDS   PTSUNNY   62  47  57 W10       30.22F
KALAMAZOO      MOSUNNY   63  44  50 N8        30.23F
STURGIS*       SUNNY     63  43  48 NW6       30.22F
THREE RIVERS*  FAIR      64  46  51 N5        30.23F

$$
OHZ001>008-015>018-024>025-222100-
NORTHWEST OHIO

CITY           SKY/WX    TMP DP  RH WIND       PRES   REMARKS
DEFIANCE       SUNNY    N/A N/A N/A VRB6      30.21F
FINDLAY        SUNNY     63  40  42 VRB6      30.20F
TOLEDO EXPRESS SUNNY     63  40  42 NW8       30.20F
TOLEDO METCALF SUNNY     61  39  44 W8        30.20F
LIMA           SUNNY     63  41  44 VRB5      30.22S

$$
AND FOR LAKE MICHIGAN COASTAL AND OPEN LAKE BUOY OBSERVATIONS

STATION/POSITION TEMP    WIND        PRES    VSBY  WAVE
                 AIR SEA DIR/SP/G                  HT/PER
                 (F)     (DEG/KT/KT) (MB)    (MI)  (FT/S)
CALUMET HARBOR    57      50/  5/  7 1023.6F
MICHIGAN CITY     58     330/  6/  8   N/A
SAINT JOSEPH      58     330/  4/  8 1025.4S
SOUTH LAKE BUOY   56 62  250/  8/ 10 1025.1F         2/ 7
4 MI NW BRIDGMAN  57 65  320/  8/ 12   N/A           3/ 4
MICHIGAN CITY     56 64  300/  4/  8   N/A           3/ 6

$$
&&


USA.gov is the U.S. government's official web portal to all federal, state and local government web resources and services.